| time (UTC) | temp F | wind direction | speed MPH | gust MPH | rain 1hr in | rain 24hr in | rain mn in | humidity % | barometer mb |
| 20260904040003 | 59 | 284 | 4.0 | 9.0 | 0.00 | 0.57 | 0.02 | 82 | 1004.8 |
| 20260904034502 | 59 | 231 | 4.0 | 13.0 | 0.00 | 0.57 | 0.02 | 80 | 1004.9 |
| 20260904033100 | 60 | 258 | 6.0 | 15.0 | 0.00 | 0.57 | 0.02 | 79 | 1005.0 |
| 20260904031602 | 60 | 268 | 7.0 | 18.0 | 0.00 | 0.57 | 0.02 | 79 | 1005.3 |
| 20260904024558 | 60 | 266 | 11.0 | 19.0 | 0.00 | 0.57 | 0.02 | 82 | 1005.1 |
| 20260904023053 | 60 | 250 | 10.0 | 16.0 | 0.00 | 0.57 | 0.02 | 85 | 1005.3 |
| 20260904021557 | 60 | 323 | 8.0 | 19.0 | 0.00 | 0.57 | 0.02 | 85 | 1005.4 |
| 20260904020046 | 60 | 251 | 5.0 | 14.0 | 0.00 | 0.57 | 0.02 | 86 | 1005.7 |
| 20260904014546 | 60 | 244 | 9.0 | 14.0 | 0.00 | 0.57 | 0.02 | 88 | 1005.7 |
| 20260904013052 | 60 | 262 | 4.0 | 12.0 | 0.02 | 0.57 | 0.02 | 88 | 1005.5 |
| 20260904011556 | 60 | 215 | 6.0 | 14.0 | 0.02 | 0.57 | 0.02 | 88 | 1005.8 |
| 20260904010038 | 60 | 276 | 9.0 | 17.0 | 0.02 | 0.57 | 0.02 | 88 | 1005.9 |
| 20260904004537 | 60 | 254 | 6.0 | 13.0 | 0.02 | 0.57 | 0.02 | 87 | 1006.0 |
| 20260904003036 | 61 | 304 | 9.0 | 19.0 | 0.00 | 0.56 | 0.00 | 85 | 1006.0 |
| 20260904001534 | 61 | 262 | 9.0 | 16.0 | 0.00 | 0.56 | 0.00 | 86 | 1006.2 |
| 20260904000033 | 61 | 278 | 6.0 | 15.0 | 0.00 | 0.56 | 0.00 | 86 | 1006.0 |
| 20260903234531 | 61 | 281 | 6.0 | 13.0 | 0.00 | 0.56 | 0.00 | 86 | 1006.1 |
| 20260903233036 | 61 | 264 | 8.0 | 15.0 | 0.00 | 0.56 | 0.00 | 85 | 1006.3 |
| 20260903231541 | 61 | 279 | 8.0 | 13.0 | 0.00 | 0.56 | 0.00 | 84 | 1006.2 |
| 20260903230033 | 61 | 294 | 11.0 | 19.0 | 0.00 | 0.56 | 0.00 | 84 | 1006.3 |
| 20260903224536 | 61 | 289 | 8.0 | 14.0 | 0.00 | 0.56 | 0.00 | 86 | 1006.5 |
| 20260903223025 | 61 | 256 | 6.0 | 13.0 | 0.00 | 0.56 | 0.00 | 85 | 1006.6 |
| 20260903221523 | 61 | 310 | 9.0 | 17.0 | 0.00 | 0.56 | 0.00 | 84 | 1006.5 |
| 20260903220024 | 61 | 272 | 11.0 | 16.0 | 0.00 | 0.56 | 0.00 | 84 | 1006.4 |
| 20260903214518 | 61 | 279 | 10.0 | 16.0 | 0.00 | 0.56 | 0.56 | 85 | 1006.5 |
| 20260903213018 | 62 | 275 | 8.0 | 15.0 | 0.00 | 0.56 | 0.56 | 85 | 1006.5 |
| 20260903211517 | 62 | 268 | 11.0 | 19.0 | 0.00 | 0.56 | 0.56 | 85 | 1006.5 |
| 20260903210016 | 62 | 253 | 13.0 | 22.0 | 0.00 | 0.56 | 0.56 | 86 | 1006.4 |
| 20260903204515 | 62 | 283 | 8.0 | 16.0 | 0.00 | 0.56 | 0.56 | 87 | 1006.4 |
| 20260903203014 | 62 | 310 | 10.0 | 17.0 | 0.00 | 0.56 | 0.56 | 86 | 1006.4 |
| 20260903201514 | 62 | 272 | 14.0 | 22.0 | 0.00 | 0.56 | 0.56 | 87 | 1006.5 |
| 20260903200013 | 62 | 154 | 11.0 | 21.0 | 0.00 | 0.56 | 0.56 | 87 | 1006.3 |
| 20260903194512 | 63 | 358 | 8.0 | 17.0 | 0.00 | 0.56 | 0.56 | 87 | 1006.2 |
| 20260903193014 | 63 | 282 | 11.0 | 22.0 | 0.00 | 0.56 | 0.56 | 86 | 1006.1 |
| 20260903191526 | 63 | 214 | 9.0 | 19.0 | 0.00 | 0.56 | 0.56 | 87 | 1005.9 |
| 20260903190011 | 63 | 272 | 11.0 | 19.0 | 0.00 | 0.56 | 0.56 | 87 | 1005.7 |
| 20260903184510 | 63 | 274 | 10.0 | 22.0 | 0.00 | 0.56 | 0.56 | 87 | 1005.9 |
| 20260903183009 | 63 | 274 | 9.0 | 21.0 | 0.00 | 0.56 | 0.56 | 89 | 1005.6 |
| 20260903181511 | 63 | 236 | 5.0 | 15.0 | 0.06 | 0.56 | 0.56 | 90 | 1005.6 |
| 20260903180014 | 64 | 243 | 6.0 | 15.0 | 0.11 | 0.56 | 0.56 | 90 | 1005.2 |
| 20260903174515 | 64 | 273 | 7.0 | 19.0 | 0.12 | 0.56 | 0.56 | 90 | 1005.2 |
| 20260903173008 | 64 | 283 | 6.0 | 14.0 | 0.12 | 0.56 | 0.56 | 90 | 1005.2 |
| 20260903171507 | 64 | 259 | 6.0 | 13.0 | 0.06 | 0.50 | 0.50 | 90 | 1005.5 |
| 20260903170006 | 65 | 266 | 4.0 | 15.0 | 0.01 | 0.46 | 0.46 | 90 | 1005.3 |
| 20260903164504 | 65 | 208 | 5.0 | 9.0 | 0.00 | 0.45 | 0.45 | 90 | 1005.0 |
| 20260903163003 | 65 | 270 | 5.0 | 12.0 | 0.00 | 0.45 | 0.45 | 91 | 1005.2 |
| 20260903161501 | 65 | 214 | 4.0 | 11.0 | 0.00 | 0.45 | 0.45 | 91 | 1005.2 |
| 20260903160002 | 65 | 222 | 4.0 | 15.0 | 0.00 | 0.45 | 0.45 | 91 | 1005.1 |
| 20260903154600 | 65 | 225 | 7.0 | 14.0 | 0.01 | 0.45 | 0.45 | 91 | 1005.0 |
| 20260903153107 | 64 | 218 | 4.0 | 10.0 | 0.02 | 0.45 | 0.45 | 92 | 1005.1 |
| 20260903151607 | 64 | 212 | 6.0 | 13.0 | 0.02 | 0.45 | 0.45 | 93 | 1005.4 |
| 20260903150059 | 63 | 178 | 2.0 | 6.0 | 0.02 | 0.45 | 0.45 | 92 | 1005.5 |
| 20260903144551 | 63 | 188 | 3.0 | 7.0 | 0.01 | 0.43 | 0.43 | 92 | 1005.9 |
| 20260903143050 | 63 | 199 | 4.0 | 8.0 | 0.00 | 0.43 | 0.43 | 92 | 1005.9 |
| 20260903141549 | 63 | 224 | 4.0 | 11.0 | 0.00 | 0.43 | 0.43 | 92 | 1006.1 |
| 20260903140055 | 63 | 168 | 2.0 | 8.0 | 0.00 | 0.43 | 0.43 | 92 | 1006.5 |
| 20260903134548 | 62 | 179 | 4.0 | 8.0 | 0.00 | 0.50 | 0.43 | 92 | 1006.6 |
| 20260903133046 | 62 | 238 | 5.0 | 10.0 | 0.00 | 0.50 | 0.43 | 92 | 1006.7 |
| 20260903131542 | 62 | 210 | 5.0 | 9.0 | 0.00 | 0.50 | 0.43 | 92 | 1006.7 |
| 20260903130047 | 62 | 212 | 4.0 | 7.0 | 0.00 | 0.50 | 0.43 | 92 | 1006.8 |
| 20260903124537 | 61 | 210 | 3.0 | 9.0 | 0.00 | 0.50 | 0.43 | 92 | 1007.1 |
| 20260903123036 | 61 | 132 | 3.0 | 8.0 | 0.00 | 0.50 | 0.43 | 92 | 1007.2 |
| 20260903121535 | 61 | 240 | 4.0 | 10.0 | 0.00 | 0.50 | 0.43 | 92 | 1007.3 |
| 20260903120035 | 61 | 183 | 4.0 | 9.0 | 0.01 | 0.50 | 0.43 | 92 | 1007.6 |
| 20260903114531 | 61 | 146 | 5.0 | 9.0 | 0.01 | 0.52 | 0.43 | 92 | 1007.7 |
| 20260903113028 | 61 | 153 | 4.0 | 8.0 | 0.01 | 0.52 | 0.43 | 92 | 1008.0 |
| 20260903111526 | 61 | 225 | 3.0 | 7.0 | 0.02 | 0.52 | 0.43 | 92 | 1008.1 |
| 20260903110024 | 61 | 210 | 1.0 | 7.0 | 0.02 | 0.51 | 0.42 | 92 | 1008.4 |
| 20260903104522 | 60 | 160 | 5.0 | 8.0 | 0.04 | 0.51 | 0.42 | 92 | 1008.5 |
| 20260903103021 | 60 | 182 | 4.0 | 7.0 | 0.05 | 0.51 | 0.42 | 92 | 1008.9 |
| 20260903101537 | 60 | 216 | 2.0 | 7.0 | 0.06 | 0.50 | 0.40 | 92 | 1009.1 |
| 20260903100018 | 60 | 237 | 1.0 | 6.0 | 0.07 | 0.49 | 0.39 | 92 | 1009.3 |
| 20260903094515 | 59 | 210 | 3.0 | 10.0 | 0.08 | 0.47 | 0.38 | 92 | 1009.5 |
| 20260903093013 | 60 | 227 | 6.0 | 14.0 | 0.09 | 0.46 | 0.37 | 92 | 1009.8 |
| 20260903091511 | 60 | 171 | 2.0 | 4.0 | 0.13 | 0.44 | 0.35 | 92 | 1009.9 |
| 20260903090109 | 60 | 217 | 1.0 | 4.0 | 0.12 | 0.42 | 0.32 | 92 | 1010.1 |
| 20260903084523 | 60 | 220 | 3.0 | 8.0 | 0.10 | 0.39 | 0.30 | 92 | 1010.3 |
| 20260903083017 | 60 | 214 | 2.0 | 5.0 | 0.08 | 0.37 | 0.28 | 92 | 1010.4 |
| 20260903081505 | 60 | 194 | 1.0 | 6.0 | 0.02 | 0.31 | 0.22 | 92 | 1010.6 |
| 20260903080006 | 60 | 205 | 3.0 | 7.0 | 0.01 | 0.30 | 0.20 | 93 | 1010.8 |
| 20260903074606 | 60 | 220 | 1.0 | 3.0 | 0.00 | 0.28 | 0.20 | 93 | 1011.0 |
| 20260903073059 | 60 | 220 | 0.0 | 1.0 | 0.00 | 0.28 | 0.20 | 93 | 1010.9 |
| 20260903071555 | 59 | 266 | 0.0 | 1.0 | 0.01 | 0.28 | 0.20 | 93 | 1011.1 |
| 20260903070052 | 59 | 285 | 0.0 | 6.0 | 0.02 | 0.28 | 0.20 | 93 | 1011.4 |
| 20260903064557 | 58 | 161 | 0.0 | 3.0 | 0.04 | 0.28 | 0.20 | 93 | 1011.3 |
| 20260903063047 | 58 | 111 | 1.0 | 2.0 | 0.05 | 0.28 | 0.20 | 93 | 1011.6 |
| 20260903061546 | 58 | 155 | 1.0 | 3.0 | 0.11 | 0.28 | 0.19 | 92 | 1011.7 |
| 20260903060044 | 58 | 135 | 2.0 | 5.0 | 0.11 | 0.27 | 0.17 | 92 | 1011.9 |
| 20260903054543 | 58 | 150 | 2.0 | 3.0 | 0.13 | 0.25 | 0.16 | 92 | 1011.8 |
| 20260903053054 | 58 | 160 | 1.0 | 3.0 | 0.12 | 0.24 | 0.14 | 92 | 1012.0 |
| 20260903051546 | 58 | 196 | 1.0 | 3.0 | 0.06 | 0.17 | 0.08 | 92 | 1012.1 |
| 20260903050039 | 58 | 223 | 1.0 | 5.0 | 0.06 | 0.16 | 0.06 | 92 | 1012.1 |
| 20260903044541 | 57 | 166 | 1.0 | 2.0 | 0.03 | 0.13 | 0.03 | 92 | 1012.4 |
| 20260903043037 | 57 | 183 | 1.0 | 2.0 | 0.02 | 0.12 | 0.02 | 91 | 1012.4 |
| 20260903041535 | 57 | 143 | 1.0 | 4.0 | 0.02 | 0.11 | 0.02 | 91 | 1012.6 |